FW3849 Weather Reports


time (UTC)temp
C
wind
direction
speed
KPH
gust
KPH
rain 1hr
cm
rain 24hr
cm
rain mn
cm
humidity
%
barometer
mb
20260506005543 28 17 4.8 12.9 0.00 0.00 0.00 11 1005.5
20260506005043 28 335 4.8 16.1 0.00 0.00 0.00 10 1005.5
20260506004542 28 355 8.0 16.1 0.00 0.00 0.00 10 1005.4
20260506004042 29 353 6.4 24.1 0.00 0.00 0.00 10 1005.3
20260506003543 29 348 9.7 24.1 0.00 0.00 0.00 9 1005.3
20260506003043 29 9 8.0 19.3 0.00 0.00 0.00 9 1005.2
20260506002542 30 343 8.0 20.9 0.00 0.00 0.00 9 1005.2
20260506002042 30 7 11.3 20.9 0.00 0.00 0.00 9 1005.2
20260506001542 30 32 8.0 19.3 0.00 0.00 0.00 8 1005.1
20260506001041 31 27 9.7 24.1 0.00 0.00 0.00 7 1005.1
20260506000644 31 330 6.4 16.1 0.00 0.00 0.00 9 1005.0
20260506000042 31 349 8.0 16.1 0.00 0.00 0.00 9 1005.0
20260505235541 31 353 4.8 14.5 0.00 0.00 0.00 11 1005.1
20260505235041 31 20 3.2 16.1 0.00 0.00 0.00 11 1005.1
20260505234547 31 10 8.0 17.7 0.00 0.00 0.00 11 1005.1
20260505234144 31 13 9.7 19.3 0.00 0.00 0.00 10 1005.1
20260505233540 31 356 6.4 16.1 0.00 0.00 0.00 11 1005.0
20260505233042 31 356 8.0 16.1 0.00 0.00 0.00 10 1004.7
20260505232540 31 342 9.7 17.7 0.00 0.00 0.00 10 1004.9
20260505232041 31 347 8.0 17.7 0.00 0.00 0.00 10 1004.9
20260505231547 31 2 8.0 16.1 0.00 0.00 0.00 10 1005.0
20260505231039 31 336 6.4 16.1 0.00 0.00 0.00 9 1004.9
20260505230639 32 10 4.8 16.1 0.00 0.00 0.00 10 1005.0
20260505230039 32 325 8.0 16.1 0.00 0.00 0.00 9 1005.0
20260505225539 32 5 6.4 22.5 0.00 0.00 0.00 10 1004.9
20260505225040 32 5 4.8 22.5 0.00 0.00 0.00 9 1005.1
20260505224538 32 2 6.4 16.1 0.00 0.00 0.00 9 1005.0
20260505224038 32 313 9.7 19.3 0.00 0.00 0.00 9 1005.0
20260505223538 32 316 9.7 20.9 0.00 0.00 0.00 9 1005.0
20260505223048 32 295 8.0 20.9 0.00 0.00 0.00 8 1005.1
20260505222537 32 35 9.7 20.9 0.00 0.00 0.00 9 1005.2
20260505222038 32 336 4.8 17.7 0.00 0.00 0.00 8 1005.1
20260505221537 32 325 9.7 22.5 0.00 0.00 0.00 9 1005.1
20260505221036 32 2 11.3 22.5 0.00 0.00 0.00 8 1005.1
20260505220637 32 29 8.0 22.5 0.00 0.00 0.00 8 1005.1
20260505220042 32 321 9.7 22.5 0.00 0.00 0.00 8 1005.3
20260505215538 32 325 12.9 22.5 0.00 0.00 0.00 8 1005.4
20260505215038 33 360 9.7 25.7 0.00 0.00 0.00 8 1005.4
20260505214547 33 345 9.7 25.7 0.00 0.00 0.00 7 1005.5
20260505214037 33 306 11.3 24.1 0.00 0.00 0.00 8 1005.5
20260505213536 32 358 6.4 22.5 0.00 0.00 0.00 8 1005.6
20260505213038 32 323 14.5 25.7 0.00 0.00 0.00 8 1005.7
20260505212536 33 304 12.9 24.1 0.00 0.00 0.00 8 1005.6
20260505212035 33 351 9.7 24.1 0.00 0.00 0.00 8 1005.8
20260505211536 33 339 11.3 22.5 0.00 0.00 0.00 8 1005.8
20260505211038 33 338 11.3 30.6 0.00 0.00 0.00 7 1005.8
20260505210635 33 358 11.3 30.6 0.00 0.00 0.00 8 1005.8
20260505210034 33 340 12.9 30.6 0.00 0.00 0.00 8 1005.9
20260505205533 33 310 11.3 22.5 0.00 0.00 0.00 8 1005.8
20260505205032 33 331 9.7 24.1 0.00 0.00 0.00 8 1005.9
20260505204535 32 337 11.3 24.1 0.00 0.00 0.00 9 1006.0
20260505204030 32 2 9.7 20.9 0.00 0.00 0.00 9 1006.1
20260505203530 32 264 12.9 22.5 0.00 0.00 0.00 9 1006.0
20260505203032 32 312 9.7 22.5 0.00 0.00 0.00 8 1006.2
20260505202530 33 338 11.3 24.1 0.00 0.00 0.00 8 1006.2
20260505202030 33 328 14.5 20.9 0.00 0.00 0.00 8 1006.2
20260505201528 33 329 9.7 22.5 0.00 0.00 0.00 8 1006.2
20260505201029 32 316 12.9 29.0 0.00 0.00 0.00 9 1006.3
20260505200629 32 336 12.9 29.0 0.00 0.00 0.00 9 1006.4
20260505200040 32 344 14.5 29.0 0.00 0.00 0.00 8 1006.4
20260505195534 32 306 12.9 29.0 0.00 0.00 0.00 8 1006.4
20260505195031 32 308 14.5 20.9 0.00 0.00 0.00 8 1006.5
20260505194529 32 309 9.7 19.3 0.00 0.00 0.00 9 1006.5
20260505194029 32 338 12.9 27.4 0.00 0.00 0.00 9 1006.5
20260505193529 32 290 9.7 29.0 0.00 0.00 0.00 9 1006.5
20260505193030 32 12 12.9 29.0 0.00 0.00 0.00 9 1006.5
20260505192531 32 334 14.5 29.0 0.00 0.00 0.00 9 1006.5
20260505192028 32 309 17.7 30.6 0.00 0.00 0.00 9 1006.6
20260505191528 32 281 11.3 30.6 0.00 0.00 0.00 9 1006.7
20260505191028 32 327 16.1 30.6 0.00 0.00 0.00 9 1006.7
20260505190627 32 309 12.9 22.5 0.00 0.00 0.00 9 1006.9
20260505190031 32 327 11.3 22.5 0.00 0.00 0.00 9 1006.9
20260505185623 31 351 11.3 22.5 0.00 0.00 0.00 10 1006.8
20260505185023 31 324 12.9 27.4 0.00 0.00 0.00 9 1006.8
20260505184523 31 284 12.9 35.4 0.00 0.00 0.00 9 1006.9
20260505184023 31 340 14.5 35.4 0.00 0.00 0.00 9 1007.0
20260505183521 32 320 11.3 25.7 0.00 0.00 0.00 9 1007.1
20260505183021 32 330 11.3 24.1 0.00 0.00 0.00 9 1007.1
20260505182521 32 38 9.7 25.7 0.00 0.00 0.00 9 1007.2
20260505182022 31 344 8.0 25.7 0.00 0.00 0.00 10 1007.3
20260505181521 31 299 12.9 32.2 0.00 0.00 0.00 10 1007.5
20260505181021 31 286 14.5 32.2 0.00 0.00 0.00 9 1007.5
20260505180619 31 344 9.7 22.5 0.00 0.00 0.00 10 1007.5
20260505180022 31 319 9.7 22.5 0.00 0.00 0.00 10 1007.7
20260505175522 31 336 14.5 25.7 0.00 0.00 0.00 10 1007.6
20260505175021 31 327 8.0 30.6 0.00 0.00 0.00 11 1007.6
20260505174521 31 318 9.7 30.6 0.00 0.00 0.00 10 1007.7
20260505174021 31 342 11.3 30.6 0.00 0.00 0.00 11 1007.6
20260505173521 31 343 17.7 30.6 0.00 0.00 0.00 11 1007.7
20260505173019 31 19 6.4 20.9 0.00 0.00 0.00 12 1007.7
20260505172520 31 333 11.3 22.5 0.00 0.00 0.00 12 1007.8
20260505172019 30 348 6.4 17.7 0.00 0.00 0.00 15 1007.8
20260505171522 30 334 9.7 17.7 0.00 0.00 0.00 15 1007.9
20260505171016 30 346 9.7 14.5 0.00 0.00 0.00 17 1007.7
20260505170516 30 346 9.7 14.5 0.00 0.00 0.00 17 1007.9
20260505170017 30 351 9.7 14.5 0.00 0.00 0.00 17 1008.0
20260505165512 29 27 8.0 16.1 0.00 0.00 0.00 21 1008.0
20260505165013 29 335 4.8 16.1 0.00 0.00 0.00 23 1008.0
20260505164509 28 346 6.4 16.1 0.00 0.00 0.00 21 1008.0
20260505164008 28 353 6.4 20.9 0.00 0.00 0.00 23 1008.0
20260505163509 28 354 4.8 20.9 0.00 0.00 0.00 26 1007.9
20260505163009 28 341 6.4 16.1 0.00 0.00 0.00 25 1007.9
20260505162505 28 338 8.0 17.7 0.00 0.00 0.00 24 1007.9
20260505162004 27 313 8.0 17.7 0.00 0.00 0.00 27 1008.0
20260505161503 27 342 4.8 11.3 0.00 0.00 0.00 35 1007.9
20260505161001 26 24 0.0 6.4 0.00 0.00 0.00 40 1008.0
20260505160601 25 175 0.0 4.8 0.00 0.00 0.00 43 1007.9
20260505153058 23 144 3.2 8.0 0.00 0.00 0.00 54 1007.9
20260505152557 23 117 1.6 8.0 0.00 0.00 0.00 55 1007.9
20260505152055 23 165 4.8 9.7 0.00 0.00 0.00 55 1007.9
20260505151555 23 202 6.4 11.3 0.00 0.00 0.00 54 1008.0
20260505151057 23 214 3.2 9.7 0.00 0.00 0.00 53 1007.9
20260505150553 22 193 1.6 8.0 0.00 0.00 0.00 55 1007.8
20260505140539 20 174 3.2 6.4 0.00 0.00 0.00 62 1007.9
20260505125029 18 196 0.0 1.6 0.00 0.00 0.00 64 1007.1
20260505124530 18 196 0.0 1.6 0.00 0.00 0.00 64 1007.0
20260505124027 18 196 0.0 1.6 0.00 0.00 0.00 64 1006.9
20260505123530 18 196 0.0 1.6 0.00 0.00 0.00 65 1006.8
20260505123026 18 196 0.0 3.2 0.00 0.00 0.00 64 1006.7
20260505122526 18 196 0.0 4.8 0.00 0.00 0.00 64 1006.6
20260505122028 18 231 1.6 4.8 0.00 0.00 0.00 64 1006.5
20260505121526 18 269 0.0 1.6 0.00 0.00 0.00 64 1006.5
20260505121025 18 270 0.0 1.6 0.00 0.00 0.00 64 1006.6
20260505120525 18 270 0.0 0.0 0.00 0.00 0.00 64 1006.5
20260505115527 18 270 0.0 1.6 0.00 0.00 0.00 64 1006.4
20260505115027 18 271 0.0 1.6 0.00 0.00 0.00 64 1006.4
20260505114527 18 275 0.0 3.2 0.00 0.00 0.00 64 1006.4
20260505114027 18 277 0.0 3.2 0.00 0.00 0.00 65 1006.3
20260505113525 18 279 0.0 1.6 0.00 0.00 0.00 64 1006.3
20260505113025 18 278 0.0 0.0 0.00 0.00 0.00 64 1006.3
20260505112525 18 271 0.0 0.0 0.00 0.00 0.00 64 1006.4
20260505112025 18 270 0.0 3.2 0.00 0.00 0.00 64 1006.4
20260505111533 18 269 0.0 3.2 0.00 0.00 0.00 63 1006.4
20260505111023 18 269 0.0 3.2 0.00 0.00 0.00 63 1006.2
20260505110522 18 269 0.0 3.2 0.00 0.00 0.00 63 1006.3
20260505102013 20 269 0.0 3.2 0.00 0.00 0.00 60 1006.1
20260505101513 20 269 0.0 4.8 0.00 0.00 0.00 60 1006.1
20260505101013 20 269 0.0 4.8 0.00 0.00 0.00 60 1006.2
20260505100513 20 193 0.0 4.8 0.00 0.00 0.00 60 1006.1
20260505095513 20 193 0.0 3.2 0.00 0.00 0.00 60 1006.0
20260505095012 20 193 1.6 3.2 0.00 0.00 0.00 59 1006.0
20260505094612 20 193 0.0 3.2 0.00 0.00 0.00 59 1006.0
20260505094012 20 193 1.6 4.8 0.00 0.00 0.00 60 1005.9
20260505093512 20 193 1.6 6.4 0.00 0.00 0.00 60 1006.0
20260505093012 20 193 3.2 6.4 0.00 0.00 0.00 60 1005.9
20260505092512 20 193 0.0 3.2 0.00 0.00 0.00 60 1006.0
20260505092011 20 193 0.0 3.2 0.00 0.00 0.00 59 1006.0
20260505091511 20 193 0.0 3.2 0.00 0.00 0.00 59 1006.0
20260505091011 20 193 0.0 3.2 0.00 0.00 0.00 59 1006.1
20260505090512 20 193 0.0 3.2 0.00 0.00 0.00 59 1005.9
20260505085510 21 193 0.0 6.4 0.00 0.00 0.00 59 1006.0
20260505085011 21 193 3.2 9.7 0.00 0.00 0.00 59 1005.9
20260505084517 21 220 3.2 9.7 0.00 0.00 0.00 59 1006.0
20260505084010 21 212 3.2 6.4 0.00 0.00 0.00 58 1006.0
20260505083510 21 197 3.2 6.4 0.00 0.00 0.00 58 1006.2
20260505083013 21 185 1.6 6.4 0.00 0.00 0.00 58 1006.2
20260505082509 21 166 1.6 4.8 0.00 0.00 0.00 58 1006.0
20260505082011 21 167 1.6 4.8 0.00 0.00 0.00 57 1006.3
20260505081510 21 166 0.0 3.2 0.00 0.00 0.00 57 1006.3
20260505081010 21 166 0.0 3.2 0.00 0.00 0.00 57 1006.3
20260505080511 21 167 1.6 6.4 0.00 0.00 0.00 57 1006.4
20260505075510 21 193 0.0 4.8 0.00 0.00 0.00 56 1006.6
20260505075014 21 193 0.0 1.6 0.00 0.00 0.00 56 1006.5
20260505074510 21 193 0.0 4.8 0.00 0.00 0.00 56 1006.6
20260505074011 21 193 0.0 6.4 0.00 0.00 0.00 55 1006.5
20260505073511 21 193 3.2 6.4 0.00 0.00 0.00 55 1006.5
20260505073012 21 164 1.6 6.4 0.00 0.00 0.00 55 1006.6
20260505072510 22 186 1.6 6.4 0.00 0.00 0.00 55 1006.7
20260505072010 22 187 3.2 8.0 0.00 0.00 0.00 54 1006.9
20260505071523 22 194 3.2 8.0 0.00 0.00 0.00 54 1006.9
20260505071010 22 191 3.2 6.4 0.00 0.00 0.00 54 1006.9
20260505070510 22 203 4.8 14.5 0.00 0.00 0.00 53 1007.1
20260505065507 22 219 6.4 19.3 0.00 0.00 0.00 53 1007.1
20260505065008 22 181 6.4 19.3 0.00 0.00 0.00 53 1007.0
20260505064516 22 192 11.3 16.1 0.00 0.00 0.00 53 1006.9
20260505064007 22 201 8.0 14.5 0.00 0.00 0.00 53 1007.2
20260505063507 22 196 6.4 19.3 0.00 0.00 0.00 53 1007.4
20260505063013 22 181 9.7 19.3 0.00 0.00 0.00 52 1007.1
20260505062507 22 195 4.8 14.5 0.00 0.00 0.00 52 1007.3
20260505062006 22 179 8.0 17.7 0.00 0.00 0.00 52 1007.2
20260505061509 22 212 6.4 19.3 0.00 0.00 0.00 52 1007.5
20260505061012 22 191 14.5 22.5 0.00 0.00 0.00 52 1007.5
20260505060508 22 168 12.9 22.5 0.00 0.00 0.00 52 1007.3
20260505055506 22 208 8.0 16.1 0.00 0.00 0.00 53 1007.5
20260505055006 22 191 3.2 8.0 0.00 0.00 0.00 53 1007.6
20260505054506 22 165 1.6 8.0 0.00 0.00 0.00 53 1007.6
20260505054006 22 164 3.2 9.7 0.00 0.00 0.00 53 1007.7
20260505053505 22 156 3.2 9.7 0.00 0.00 0.00 53 1007.8
20260505053005 22 186 3.2 6.4 0.00 0.00 0.00 52 1007.8
20260505052506 22 185 3.2 8.0 0.00 0.00 0.00 52 1007.7
20260505052005 22 185 4.8 8.0 0.00 0.00 0.00 52 1007.8
20260505051507 22 165 3.2 9.7 0.00 0.00 0.00 51 1007.7
20260505051008 22 189 4.8 14.5 0.00 0.00 0.00 51 1007.7
20260505050504 23 155 4.8 8.0 0.00 0.00 0.00 50 1007.6
20260505041513 23 186 3.2 12.9 0.00 0.00 0.00 47 1007.6
20260505041006 23 187 4.8 12.9 0.00 0.00 0.00 46 1007.5
20260505040506 23 206 8.0 17.7 0.00 0.00 0.00 46 1007.5
20260505035505 23 202 11.3 17.7 0.00 0.00 0.00 46 1007.4
20260505035003 23 196 4.8 9.7 0.00 0.00 0.00 46 1007.2
20260505034503 23 185 4.8 9.7 0.00 0.00 0.00 46 1007.2
20260505034003 24 190 4.8 12.9 0.00 0.00 0.00 46 1007.4
20260505033502 24 202 4.8 16.1 0.00 0.00 0.00 45 1007.2
20260505033002 24 181 6.4 17.7 0.00 0.00 0.00 45 1007.2
20260505032502 24 201 8.0 17.7 0.00 0.00 0.00 44 1007.1
20260505032004 24 197 9.7 24.1 0.00 0.00 0.00 44 1007.0
20260505031502 25 200 12.9 24.1 0.00 0.00 0.00 43 1007.0
20260505031001 25 191 9.7 17.7 0.00 0.00 0.00 43 1007.0
20260505030501 25 194 9.7 20.9 0.00 0.00 0.00 43 1006.9
20260505025600 25 185 9.7 20.9 0.00 0.00 0.00 43 1006.6
20260505025100 25 204 12.9 20.9 0.00 0.00 0.00 43 1006.5
20260505024602 25 197 11.3 19.3 0.00 0.00 0.00 43 1006.6
20260505024102 25 196 6.4 17.7 0.00 0.00 0.00 42 1006.8
20260505023559 25 175 9.7 17.7 0.00 0.00 0.00 41 1006.8
20260505023108 25 191 6.4 16.1 0.00 0.00 0.00 41 1006.8
20260505022559 25 191 6.4 14.5 0.00 0.00 0.00 41 1006.7
20260505022059 25 202 6.4 16.1 0.00 0.00 0.00 40 1006.5
20260505021601 25 183 6.4 16.1 0.00 0.00 0.00 40 1006.6
20260505021058 26 169 6.4 17.7 0.00 0.00 0.00 39 1006.4
20260505020557 26 190 6.4 16.1 0.00 0.00 0.00 38 1006.4
20260505015557 26 220 4.8 16.1 0.00 0.00 0.00 38 1006.5
20260505015059 26 133 3.2 14.5 0.00 0.00 0.00 38 1006.4
20260505014600 26 185 6.4 14.5 0.00 0.00 0.00 38 1006.3
20260505014056 26 175 6.4 16.1 0.00 0.00 0.00 37 1006.2
20260505013556 26 150 8.0 16.1 0.00 0.00 0.00 37 1006.1
20260505013055 26 164 8.0 16.1 0.00 0.00 0.00 37 1006.1
20260505012556 26 188 8.0 16.1 0.00 0.00 0.00 36 1006.0
20260505012058 27 191 8.0 16.1 0.00 0.00 0.00 36 1005.9
20260505011556 27 149 8.0 19.3 0.00 0.00 0.00 35 1005.9
20260505011057 27 185 9.7 19.3 0.00 0.00 0.00 34 1006.0
20260505010554 27 218 11.3 19.3 0.00 0.00 0.00 33 1006.0